SL-8 DEB, 3038

Orbit data source: Space-Track

SL-8 DEB, 3038 is space debris in LEO originally from a launch on Mon, 15 Mar 1965 UTC launched from the Tyuratam Missile And Space Complex (TTMTR). Debris objects in space refer to the collection of defunct objects orbiting the Earth. Examples of debris include non-operational satellites, rocket bodies, and fragments generated from explosions, collisions, or faulty payload assembly.

Loading next visibility...
Identifier
3038, 1965-020EN
Orbit
LEO
Country
Flag of CISCIS
Related business
Manufacturer
Unknown
Mission
Spacecraft
Bus & Motor
Unknown
Mass
Unknown
Launch date (UTC)
1965-03-15 (62 years ago)
Launch vehicle
Unknown
Launch site
Tyuratam Missile And Space Complex (TTMTR)
Object type
Payload
Rocket body
Debris
Shape & HBR
Unknown shape, 0.1 m
Radar Cross Section
Medium (>0.1 m² and <1 m²)

Expand to show TLE details & history
Last TLE update: 13 hours ago

TLE from 13 hours ago
0 SL-8 DEB
1 03038U 65020EN  26266.22160756  .00002974  00000-0  66194-3 0  9999
2 03038  56.1678 335.2510 0378035 326.5467  31.2147 14.23413916239777
Epoch: 2026-09-23T05:19Z
TLE epoch observation values (Epoch: 2026-09-23T05:19:06.893Z)
Latitude
0.00001°
Longitude
-106.60355°
Altitude
585.372 km
Speed
7.688 km/s
True Right ascension
22h 21m 00s
True Declination
0° 00' 00"
Sunlit
Object was in full shadow at epoch
Visualization orbit readout
Latitude
Unknown
Longitude
Unknown
Altitude
Unknown
Speed
Unknown
Apparent Right ascension
Unknown
Apparent Declination
Unknown
Sunlit
N/A
Visualization observer readout
Local Sidereal Time
11:03:02
Azimuth
Unknown
Elevation
Unknown
Doppler factor
Unknown
Orbital elements
Apogee altitude
1,085.493 km
Perigee altitude
541.746 km
Semi-major axis
7,191.757 km
Eccentricity
0.0378
Inclination
56.1678°
RAAN
335.251°
Arg. of periapsis
326.5467°
True anomaly
33.55345°
Mean anomaly
31.2147°
Eccentric anomaly
32.37448°
Mean motion
3.55869 °/min
Orbital period
101.16 mins
BSTAR
0.00066194
Loading maneuver chart data...
Computing Atmospheric mass density...
Loading historical data...
Loading historical data...
Loading historical data...
Loading historical data...
Loading historical data...
Loading historical data...
Loading historical data...

Documentation

Showing up to 5 results
|